This is the latest recevied weather packets stored in our database for station/object HA3YA-WX. If no packets are shown the sender has not sent any weather packets the latest 10 day(s).
| Time | Temp. | Humidity | Pressure | Rain* | Wind** | Luminosity | Snow |
|---|---|---|---|---|---|---|---|
| 1777728695 | 26.11° C | 29% | 1008 hPa | - | - | - | - |
| 1777728093 | 26.11° C | 28% | 1008.3 hPa | - | - | - | - |
| 1777727493 | 26.11° C | 29% | 1008 hPa | - | - | - | - |
| 1777726893 | 26.67° C | 29% | 1008 hPa | - | - | - | - |
| 1777725692 | 26.11° C | 29% | 1008 hPa | - | - | - | - |
| 1777725092 | 26.11° C | 29% | 1008 hPa | - | - | - | - |
| 1777723893 | 26.11° C | 31% | 1009 hPa | - | - | - | - |
| 1777723292 | 26.67° C | 30% | 1009 hPa | - | - | - | - |
| 1777722692 | 25.56° C | 31% | 1009 hPa | - | - | - | - |
| 1777722092 | 25.56° C | 31% | 1009 hPa | - | - | - | - |
| 1777721494 | 25.56° C | 31% | 1009.5 hPa | - | - | - | - |
| 1777720892 | 25.56° C | 32% | 1009 hPa | - | - | - | - |
| 1777720293 | 25° C | 32% | 1009 hPa | - | - | - | - |
| 1777719692 | 25° C | 33% | 1009 hPa | - | - | - | - |
| 1777719092 | 25° C | 34% | 1010 hPa | - | - | - | - |
| 1777718492 | 24.44° C | 34% | 1010 hPa | - | - | - | - |
| 1777717893 | 24.44° C | 35% | 1010.2 hPa | - | - | - | - |
| 1777717292 | 24.44° C | 36% | 1010 hPa | - | - | - | - |
| 1777716692 | 23.89° C | 36% | 1010 hPa | - | - | - | - |
| 1777716092 | 22.78° C | 37% | 1010 hPa | - | - | - | - |
| 1777715493 | 23.33° C | 37% | 1010 hPa | - | - | - | - |
| 1777714892 | 22.22° C | 39% | 1010 hPa | - | - | - | - |
| 1777714293 | 22.22° C | 40% | 1010.8 hPa | - | - | - | - |
| 1777713692 | 22.78° C | 43% | 1010 hPa | - | - | - | - |
| 1777713093 | 21.11° C | 44% | 1010 hPa | - | - | - | - |
* Rain since midnight (hover to see other rain measurements)
** Current wind speed in m/s (hover to see current wind gust speed)